Location: Andrest
(43.3200°N, 0.0641°E)
Time: 14:58:27
(UTC+00:00)

MOS 1 Rocket - Pass Details

Date: 01 December 2020
Orbit: 613 x 831 km, 97.4° (Epoch: 25 January)

Event Time Altitude Azimuth Distance (km) Brightness Sun altitude
Exits shadow 18:52:45 35° 6° (N) 1,320 4.5 -26.2°
Maximum altitude 18:55:08 80° 285° (WNW) 844 3.6 -26.6°
Drops below altitude 10° 19:00:28 10° 199° (SSW) 2,385 6.3 -27.6°
Sets 19:02:46 0° 198° (SSW) 3,289 7.1 -28.0°
